Hourly Data Report for July 21, 2017

PITT MEADOWS CS
BRITISH COLUMBIA

49°12'29.964" N
122°41'24.076" W
5.00 m
1106178
71775
WMM

Download Data

Hourly Data (July 2017)
Hourly Data Report for July 21, 2017
TIME
LST
Temp Definition
°C
Dew Point Definition
°C
Rel Hum Definition
%
Precip. Amount Definition
mm

Wind Dir Definition
10's deg

Wind Spd Definition
km/h
Visibility Definition
km
Stn Press Definition
kPa
Hmdx Definition


Wind Chill Definition


Weather Definition


00:00 13.9 11.3 84 0.0 9 4   101.96     LegendNANA
01:00 13.8 12.2 90 0.0 0 1   101.95     LegendNANA
02:00 13.0 11.7 92 0.0 14 1   101.95     LegendNANA
03:00 13.5 12.0 90 0.0 9 2   101.96     LegendNANA
04:00 13.5 11.7 89 0.0 0 1   101.96     LegendNANA
05:00 13.5 11.9 90 0.0 13 2   101.96     LegendNANA
06:00 14.6 11.9 84 0.0 12 2   101.99     LegendNANA
07:00 16.3 12.6 79 0.0 11 3   102.02     LegendNANA
08:00 17.9 13.1 73 0.0 13 2   102.03     LegendNANA
09:00 18.5 12.4 67 0.0 13 5   102.03     LegendNANA
10:00 20.2 13.4 65 0.0 11 2   102.07     LegendNANA
11:00 20.0 12.2 61 0.0 22 2   102.07     LegendNANA
12:00 20.6 10.8 53 0.0 23 4   102.07     LegendNANA
13:00 21.4 9.1 45 0.0 27 3   102.06     LegendNANA
14:00 20.9 11.6 55 0.0 23 4   102.07     LegendNANA
15:00 20.8 12.5 59 0.0 24 7   102.06     LegendNANA
16:00 20.6 12.2 58 0.0 25 5   102.04     LegendNANA
17:00 20.6 12.3 59 0.0 25 5   102.02     LegendNANA
18:00 20.4 12.7 61 0.0 22 4   102.01     LegendNANA
19:00 20.1 13.5 66 0.0 16 3   101.99     LegendNANA
20:00 19.2 13.5 70 0.0 13 2   101.98     LegendNANA
21:00 19.6 13.0 66 0.0 34 4   102.00     LegendNANA
22:00 18.8 13.7 72 0.0 2 6   101.96     LegendNANA
23:00 18.7 12.9 69 0.0 36 4   101.97     LegendNANA

Notes on Data Quality.

Legend

  • E = Estimated
  • M = Missing
  • NA = Not Available*
  • [empty] = Indicates an unobserved value
Date modified: